Currently 59°F in Pinon Hills, California, USA
59°F
65°F / 58°F
2 mph SW
0.00"
Thursday, October 19, 2017 3:50 AM PDT

Pinon Hills, California Climate Summary
Typical June Day

Normal High:    89.9°F (32.2°C)
Normal Low:    63.5°F (17.5°C)
Average:    76.9°F (24.9°C)

Hour    Temperature    Wind Speed    Humidity
12:00 AM    70°F (21°C)    3 mph    28%
1:00 AM    69°F (20°C)    3 mph    28%
2:00 AM    68°F (20°C)    3 mph    29%
3:00 AM    67°F (20°C)    3 mph    29%
4:00 AM    67°F (19°C)    2 mph    29%
5:00 AM    66°F (19°C)    3 mph    30%
6:00 AM    66°F (19°C)    2 mph    29%
7:00 AM    71°F (22°C)    2 mph    27%
8:00 AM    76°F (24°C)    3 mph    22%
9:00 AM    79°F (26°C)    3 mph    20%
10:00 AM    81°F (27°C)    3 mph    18%
11:00 AM    83°F (28°C)    3 mph    16%
12:00 PM    85°F (30°C)    3 mph    14%
1:00 PM    87°F (31°C)    4 mph    12%
2:00 PM    88°F (31°C)    4 mph    12%
3:00 PM    88°F (31°C)    4 mph    12%
4:00 PM    88°F (31°C)    5 mph    13%
5:00 PM    87°F (30°C)    5 mph    15%
6:00 PM    85°F (29°C)    6 mph    16%
7:00 PM    83°F (28°C)    5 mph    18%
8:00 PM    78°F (26°C)    4 mph    22%
9:00 PM    74°F (23°C)    3 mph    26%
10:00 PM    72°F (22°C)    2 mph    28%
11:00 PM    71°F (21°C)    3 mph    28%
 

The Pinon Hills, California weather pages are a service of WeatherCurrents.
Copyright ©Thu Oct 19 03:51:24 PDT 2017  WeatherCurrents. All rights reserved. - Submit questions and comments - Privacy Policy